| time (UTC) | temp F | wind direction | speed MPH | gust MPH | rain 1hr in | rain 24hr in | rain mn in | humidity % | barometer mb |
| 20260510211003 | 52 | 146 | 0.0 | 2.0 | 0.14 | 0.25 | 0.25 | 98 | 1011.8 |
| 20260510210004 | 52 | 159 | 1.0 | 3.0 | 0.12 | 0.23 | 0.23 | 97 | 1012.1 |
| 20260510205003 | 52 | 170 | 1.0 | 7.0 | 0.09 | 0.19 | 0.19 | 97 | 1012.4 |
| 20260510204003 | 52 | 171 | 2.0 | 7.0 | 0.05 | 0.15 | 0.15 | 97 | 1012.8 |
| 20260510203003 | 53 | 173 | 1.0 | 3.0 | 0.03 | 0.13 | 0.13 | 96 | 1012.8 |
| 20260510202003 | 53 | 160 | 2.0 | 6.0 | 0.02 | 0.12 | 0.12 | 96 | 1013.1 |
| 20260510201003 | 53 | 179 | 2.0 | 8.0 | 0.01 | 0.11 | 0.11 | 95 | 1013.1 |
| 20260510200003 | 53 | 160 | 2.0 | 9.0 | 0.01 | 0.11 | 0.11 | 94 | 1013.1 |
| 20260510195003 | 54 | 162 | 1.0 | 6.0 | 0.00 | 0.10 | 0.10 | 93 | 1013.5 |
| 20260510194003 | 54 | 166 | 2.0 | 8.0 | 0.00 | 0.10 | 0.10 | 93 | 1013.5 |
| 20260510193004 | 54 | 176 | 3.0 | 8.0 | 0.00 | 0.10 | 0.10 | 91 | 1013.5 |
| 20260510192003 | 54 | 176 | 2.0 | 7.0 | 0.00 | 0.10 | 0.10 | 90 | 1013.8 |
| 20260510191004 | 55 | 165 | 2.0 | 8.0 | 0.00 | 0.10 | 0.10 | 88 | 1013.8 |
| 20260510190004 | 55 | 169 | 3.0 | 9.0 | 0.00 | 0.10 | 0.10 | 88 | 1013.8 |
| 20260510185003 | 55 | 174 | 3.0 | 11.0 | 0.00 | 0.10 | 0.10 | 88 | 1013.8 |
| 20260510184003 | 55 | 177 | 4.0 | 9.0 | 0.00 | 0.10 | 0.10 | 87 | 1014.1 |
| 20260510183004 | 55 | 161 | 4.0 | 10.0 | 0.00 | 0.10 | 0.10 | 87 | 1014.5 |
| 20260510182003 | 56 | 193 | 3.0 | 11.0 | 0.00 | 0.10 | 0.10 | 87 | 1014.1 |
| 20260510181003 | 56 | 178 | 3.0 | 11.0 | 0.00 | 0.10 | 0.10 | 86 | 1014.5 |
| 20260510180004 | 57 | 171 | 3.0 | 13.0 | 0.00 | 0.10 | 0.10 | 86 | 1014.5 |
| 20260510175003 | 57 | 198 | 4.0 | 16.0 | 0.00 | 0.10 | 0.10 | 85 | 1014.8 |
| 20260510174004 | 58 | 177 | 4.0 | 9.0 | 0.01 | 0.10 | 0.10 | 83 | 1014.5 |
| 20260510173004 | 58 | 179 | 4.0 | 11.0 | 0.01 | 0.10 | 0.10 | 84 | 1014.5 |
| 20260510172004 | 56 | 170 | 4.0 | 11.0 | 0.01 | 0.10 | 0.10 | 86 | 1014.8 |
| 20260510171003 | 55 | 166 | 2.0 | 8.0 | 0.02 | 0.10 | 0.10 | 89 | 1014.8 |
| 20260510170004 | 55 | 173 | 2.0 | 4.0 | 0.04 | 0.10 | 0.10 | 90 | 1014.8 |
| 20260510165003 | 56 | 158 | 2.0 | 6.0 | 0.04 | 0.10 | 0.10 | 91 | 1015.2 |
| 20260510164003 | 56 | 178 | 2.0 | 4.0 | 0.03 | 0.09 | 0.09 | 90 | 1015.2 |
| 20260510163003 | 56 | 186 | 1.0 | 3.0 | 0.03 | 0.09 | 0.09 | 91 | 1015.2 |
| 20260510162003 | 56 | 171 | 1.0 | 6.0 | 0.04 | 0.09 | 0.09 | 90 | 1015.5 |
| 20260510161003 | 57 | 160 | 2.0 | 7.0 | 0.03 | 0.08 | 0.08 | 87 | 1015.5 |
| 20260510160004 | 60 | 169 | 3.0 | 8.0 | 0.01 | 0.06 | 0.06 | 75 | 1015.5 |
| 20260510155003 | 61 | 163 | 3.0 | 13.0 | 0.01 | 0.06 | 0.06 | 75 | 1015.2 |
| 20260510154003 | 59 | 173 | 3.0 | 10.0 | 0.01 | 0.06 | 0.06 | 80 | 1015.5 |
| 20260510153004 | 58 | 165 | 3.0 | 10.0 | 0.01 | 0.06 | 0.06 | 82 | 1015.5 |
| 20260510152004 | 58 | 173 | 4.0 | 10.0 | 0.00 | 0.05 | 0.05 | 80 | 1015.5 |
| 20260510151003 | 60 | 177 | 3.0 | 11.0 | 0.00 | 0.05 | 0.05 | 73 | 1015.5 |
| 20260510150003 | 61 | 177 | 3.0 | 13.0 | 0.00 | 0.05 | 0.05 | 68 | 1015.5 |
| 20260510145003 | 62 | 176 | 3.0 | 10.0 | 0.00 | 0.05 | 0.05 | 67 | 1015.8 |
| 20260510144004 | 58 | 185 | 4.0 | 13.0 | 0.00 | 0.05 | 0.05 | 72 | 1015.8 |
| 20260510143003 | 58 | 175 | 4.0 | 10.0 | 0.00 | 0.05 | 0.05 | 71 | 1015.8 |
| 20260510142003 | 59 | 182 | 3.0 | 10.0 | 0.00 | 0.05 | 0.05 | 70 | 1015.8 |
| 20260510141003 | 59 | 185 | 4.0 | 11.0 | 0.00 | 0.05 | 0.05 | 71 | 1015.8 |
| 20260510140004 | 58 | 174 | 3.0 | 14.0 | 0.00 | 0.05 | 0.05 | 71 | 1016.2 |
| 20260510135004 | 59 | 176 | 3.0 | 8.0 | 0.00 | 0.05 | 0.05 | 70 | 1016.2 |
| 20260510134003 | 58 | 203 | 4.0 | 10.0 | 0.00 | 0.05 | 0.05 | 71 | 1016.2 |
| 20260510133003 | 58 | 175 | 3.0 | 9.0 | 0.00 | 0.05 | 0.05 | 72 | 1015.8 |
| 20260510132003 | 58 | 175 | 3.0 | 13.0 | 0.00 | 0.05 | 0.05 | 70 | 1015.8 |
| 20260510131003 | 57 | 160 | 2.0 | 10.0 | 0.00 | 0.05 | 0.05 | 76 | 1015.8 |
| 20260510130004 | 55 | 166 | 2.0 | 6.0 | 0.00 | 0.05 | 0.05 | 79 | 1016.2 |
| 20260510125003 | 54 | 164 | 3.0 | 10.0 | 0.00 | 0.05 | 0.05 | 80 | 1016.2 |
| 20260510124003 | 54 | 164 | 1.0 | 7.0 | 0.00 | 0.05 | 0.05 | 83 | 1016.5 |
| 20260510123003 | 53 | 144 | 1.0 | 4.0 | 0.00 | 0.05 | 0.05 | 84 | 1016.5 |
| 20260510122003 | 52 | 150 | 1.0 | 4.0 | 0.00 | 0.05 | 0.05 | 87 | 1016.5 |
| 20260510121003 | 50 | 161 | 1.0 | 6.0 | 0.00 | 0.05 | 0.05 | 89 | 1016.9 |
| 20260510120004 | 49 | 161 | 1.0 | 3.0 | 0.00 | 0.05 | 0.05 | 93 | 1016.9 |
| 20260510115003 | 49 | 173 | 1.0 | 3.0 | 0.00 | 0.05 | 0.05 | 95 | 1016.9 |
| 20260510114003 | 48 | 153 | 1.0 | 3.0 | 0.00 | 0.05 | 0.05 | 96 | 1016.9 |
| 20260510113004 | 48 | 157 | 1.0 | 2.0 | 0.00 | 0.05 | 0.05 | 96 | 1017.2 |
| 20260510112003 | 48 | 171 | 1.0 | 3.0 | 0.00 | 0.05 | 0.05 | 97 | 1017.2 |
| 20260510111003 | 47 | 157 | 1.0 | 4.0 | 0.00 | 0.05 | 0.05 | 97 | 1017.2 |
| 20260510110004 | 47 | 148 | 1.0 | 4.0 | 0.00 | 0.05 | 0.05 | 98 | 1016.9 |
| 20260510105003 | 47 | 160 | 1.0 | 4.0 | 0.00 | 0.05 | 0.05 | 98 | 1017.2 |
| 20260510104004 | 46 | 150 | 1.0 | 3.0 | 0.00 | 0.05 | 0.05 | 98 | 1016.9 |
| 20260510103003 | 46 | 167 | 1.0 | 2.0 | 0.00 | 0.05 | 0.05 | 98 | 1016.9 |
| 20260510102004 | 46 | 200 | 0.0 | 2.0 | 0.00 | 0.05 | 0.05 | 98 | 1016.9 |
| 20260510101003 | 46 | 160 | 1.0 | 7.0 | 0.00 | 0.05 | 0.05 | 98 | 1016.9 |
| 20260510100004 | 46 | 176 | 1.0 | 4.0 | 0.00 | 0.05 | 0.05 | 98 | 1017.2 |
| 20260510095004 | 46 | 199 | 1.0 | 2.0 | 0.00 | 0.05 | 0.05 | 98 | 1016.9 |
| 20260510094003 | 45 | 170 | 1.0 | 3.0 | 0.00 | 0.05 | 0.05 | 98 | 1016.9 |
| 20260510093003 | 45 | 175 | 1.0 | 2.0 | 0.00 | 0.05 | 0.05 | 98 | 1016.5 |
| 20260510092003 | 45 | 177 | 1.0 | 2.0 | 0.00 | 0.05 | 0.05 | 98 | 1016.2 |
| 20260510091003 | 45 | 186 | 1.0 | 4.0 | 0.00 | 0.05 | 0.05 | 98 | 1016.5 |
| 20260510090004 | 45 | 142 | 0.0 | 1.0 | 0.00 | 0.05 | 0.05 | 97 | 1016.5 |
| 20260510085003 | 45 | 157 | 1.0 | 3.0 | 0.00 | 0.05 | 0.05 | 97 | 1016.5 |
| 20260510084003 | 45 | 176 | 1.0 | 4.0 | 0.00 | 0.05 | 0.05 | 97 | 1016.5 |
| 20260510083004 | 45 | 184 | 1.0 | 3.0 | 0.00 | 0.05 | 0.05 | 97 | 1016.5 |
| 20260510082003 | 45 | 183 | 1.0 | 4.0 | 0.00 | 0.05 | 0.05 | 97 | 1016.5 |
| 20260510081004 | 45 | 190 | 1.0 | 3.0 | 0.00 | 0.05 | 0.05 | 97 | 1016.9 |
| 20260510080003 | 45 | 169 | 1.0 | 3.0 | 0.00 | 0.05 | 0.05 | 97 | 1016.5 |
| 20260510075004 | 45 | 183 | 2.0 | 4.0 | 0.00 | 0.05 | 0.05 | 97 | 1016.5 |
| 20260510074003 | 45 | 193 | 1.0 | 3.0 | 0.00 | 0.05 | 0.05 | 97 | 1016.5 |
| 20260510073003 | 45 | 168 | 1.0 | 4.0 | 0.00 | 0.05 | 0.05 | 97 | 1016.5 |
| 20260510072004 | 45 | 170 | 2.0 | 7.0 | 0.01 | 0.05 | 0.05 | 97 | 1016.5 |
| 20260510071003 | 45 | 168 | 1.0 | 4.0 | 0.01 | 0.05 | 0.05 | 97 | 1016.2 |
| 20260510070004 | 45 | 169 | 1.0 | 4.0 | 0.02 | 0.05 | 0.05 | 97 | 1016.5 |
| 20260510065003 | 45 | 167 | 1.0 | 3.0 | 0.02 | 0.05 | 0.05 | 97 | 1016.5 |
| 20260510064003 | 45 | 172 | 1.0 | 3.0 | 0.02 | 0.05 | 0.05 | 96 | 1016.5 |
| 20260510063004 | 45 | 172 | 1.0 | 3.0 | 0.02 | 0.05 | 0.05 | 96 | 1016.5 |
| 20260510062003 | 45 | 190 | 1.0 | 3.0 | 0.01 | 0.04 | 0.04 | 96 | 1016.5 |
| 20260510061003 | 44 | 176 | 1.0 | 3.0 | 0.01 | 0.04 | 0.04 | 96 | 1016.5 |
| 20260510060004 | 44 | 197 | 1.0 | 3.0 | 0.00 | 0.03 | 0.03 | 96 | 1016.5 |
| 20260510055004 | 44 | 170 | 1.0 | 2.0 | 0.00 | 0.03 | 0.03 | 96 | 1016.2 |
| 20260510054004 | 44 | 163 | 0.0 | 2.0 | 0.00 | 0.03 | 0.03 | 96 | 1016.5 |
| 20260510053004 | 44 | 173 | 1.0 | 6.0 | 0.01 | 0.03 | 0.03 | 96 | 1016.5 |
| 20260510052003 | 44 | 213 | 0.0 | 2.0 | 0.01 | 0.03 | 0.03 | 96 | 1016.5 |
| 20260510051003 | 44 | 183 | 0.0 | 2.0 | 0.01 | 0.03 | 0.03 | 96 | 1016.5 |
| 20260510050004 | 44 | 199 | 0.0 | 2.0 | 0.01 | 0.03 | 0.03 | 96 | 1016.5 |
| 20260510045003 | 44 | 164 | 1.0 | 3.0 | 0.02 | 0.03 | 0.03 | 95 | 1016.9 |
| 20260510044003 | 44 | 199 | 1.0 | 3.0 | 0.02 | 0.03 | 0.03 | 95 | 1016.9 |
| 20260510043004 | 44 | 168 | 1.0 | 3.0 | 0.02 | 0.02 | 0.02 | 94 | 1016.5 |
| 20260510042003 | 45 | 198 | 1.0 | 3.0 | 0.02 | 0.02 | 0.02 | 94 | 1016.9 |
| 20260510041004 | 45 | 203 | 1.0 | 3.0 | 0.02 | 0.02 | 0.02 | 93 | 1016.5 |
| 20260510040003 | 45 | 188 | 1.0 | 3.0 | 0.02 | 0.02 | 0.02 | 91 | 1016.5 |
| 20260510035003 | 45 | 203 | 1.0 | 3.0 | 0.01 | 0.01 | 0.01 | 90 | 1016.5 |
| 20260510034004 | 45 | 199 | 1.0 | 3.0 | 0.01 | 0.01 | 0.01 | 88 | 1016.5 |
| 20260510033003 | 46 | 179 | 1.0 | 2.0 | 0.00 | 0.00 | 0.00 | 85 | 1016.5 |
| 20260510032004 | 47 | 186 | 1.0 | 3.0 | 0.00 | 0.00 | 0.00 | 80 | 1016.5 |
| 20260510031003 | 48 | 190 | 1.0 | 4.0 | 0.00 | 0.00 | 0.00 | 74 | 1016.5 |
| 20260510030004 | 48 | 176 | 1.0 | 4.0 | 0.00 | 0.00 | 0.00 | 72 | 1016.5 |
| 20260510025003 | 48 | 174 | 1.0 | 4.0 | 0.00 | 0.00 | 0.00 | 71 | 1016.9 |
| 20260510024003 | 48 | 177 | 1.0 | 3.0 | 0.00 | 0.00 | 0.00 | 70 | 1016.5 |
| 20260510023004 | 49 | 180 | 2.0 | 7.0 | 0.00 | 0.00 | 0.00 | 68 | 1016.9 |
| 20260510022004 | 49 | 176 | 2.0 | 8.0 | 0.00 | 0.00 | 0.00 | 65 | 1016.9 |
| 20260510021003 | 49 | 177 | 2.0 | 8.0 | 0.00 | 0.00 | 0.00 | 64 | 1016.5 |
| 20260510020004 | 49 | 169 | 2.0 | 7.0 | 0.00 | 0.00 | 0.00 | 62 | 1016.9 |
| 20260510015004 | 49 | 197 | 2.0 | 4.0 | 0.00 | 0.00 | 0.00 | 61 | 1016.5 |
| 20260510014003 | 49 | 162 | 1.0 | 6.0 | 0.00 | 0.00 | 0.00 | 59 | 1016.5 |
| 20260510013004 | 50 | 187 | 2.0 | 6.0 | 0.00 | 0.00 | 0.00 | 57 | 1016.5 |
| 20260510012004 | 50 | 177 | 3.0 | 8.0 | 0.00 | 0.00 | 0.00 | 56 | 1016.9 |
| 20260510011003 | 51 | 180 | 3.0 | 8.0 | 0.00 | 0.00 | 0.00 | 53 | 1016.5 |
| 20260510010003 | 51 | 179 | 1.0 | 6.0 | 0.00 | 0.00 | 0.00 | 47 | 1016.5 |
| 20260510005003 | 52 | 182 | 1.0 | 4.0 | 0.00 | 0.00 | 0.00 | 44 | 1016.2 |
| 20260510004003 | 52 | 186 | 2.0 | 8.0 | 0.00 | 0.00 | 0.00 | 42 | 1015.8 |
| 20260510003004 | 52 | 210 | 1.0 | 7.0 | 0.00 | 0.00 | 0.00 | 41 | 1016.2 |
| 20260510002003 | 52 | 193 | 2.0 | 9.0 | 0.00 | 0.00 | 0.00 | 38 | 1015.8 |
| 20260510001004 | 51 | 182 | 2.0 | 6.0 | 0.00 | 0.00 | 0.00 | 38 | 1015.8 |
| 20260510000004 | 50 | 175 | 0.0 | 2.0 | 0.00 | 0.00 | 0.00 | 42 | 1015.5 |
| 20260509235003 | 50 | 191 | 0.0 | 1.0 | 0.00 | 0.00 | 0.00 | 42 | 1015.5 |
| 20260509234003 | 51 | 201 | 0.0 | 2.0 | 0.00 | 0.00 | 0.00 | 43 | 1015.5 |
| 20260509233004 | 51 | 216 | 1.0 | 2.0 | 0.00 | 0.00 | 0.00 | 39 | 1015.2 |
| 20260509232004 | 52 | 215 | 1.0 | 4.0 | 0.00 | 0.00 | 0.00 | 38 | 1015.5 |
| 20260509231004 | 52 | 198 | 1.0 | 4.0 | 0.00 | 0.01 | 0.00 | 38 | 1015.5 |
| 20260509230004 | 53 | 200 | 1.0 | 4.0 | 0.00 | 0.02 | 0.00 | 36 | 1015.5 |
| 20260509225004 | 53 | 188 | 2.0 | 7.0 | 0.00 | 0.04 | 0.00 | 36 | 1015.2 |
| 20260509224004 | 54 | 196 | 2.0 | 7.0 | 0.00 | 0.04 | 0.00 | 33 | 1015.2 |
| 20260509223004 | 54 | 204 | 2.0 | 10.0 | 0.00 | 0.04 | 0.00 | 32 | 1014.8 |
| 20260509222003 | 54 | 188 | 2.0 | 7.0 | 0.00 | 0.04 | 0.00 | 31 | 1014.8 |
| 20260509221003 | 55 | 192 | 1.0 | 7.0 | 0.00 | 0.04 | 0.00 | 34 | 1014.8 |
| 20260509220004 | 55 | 184 | 2.0 | 7.0 | 0.00 | 0.04 | 0.00 | 32 | 1014.5 |
| 20260509215003 | 56 | 169 | 1.0 | 4.0 | 0.00 | 0.04 | 0.00 | 33 | 1014.5 |
| 20260509214003 | 56 | 175 | 2.0 | 4.0 | 0.00 | 0.04 | 0.00 | 35 | 1014.5 |
| 20260509213003 | 57 | 199 | 2.0 | 4.0 | 0.00 | 0.04 | 0.00 | 34 | 1014.5 |
| 20260509212004 | 58 | 184 | 2.0 | 4.0 | 0.00 | 0.04 | 0.00 | 33 | 1014.5 |